Year,Month,Day,Hour,Minute,Value (Times are PST for windgust in km/hr)
2010,10,25,00,00,6.40
2010,10,25,00,01,8.10
2010,10,25,00,02,8.10
2010,10,25,00,03,6.40
2010,10,25,00,04,8.10
2010,10,25,00,05,6.40
2010,10,25,00,06,8.10
2010,10,25,00,07,6.40
2010,10,25,00,08,6.40
2010,10,25,00,09,14.50
2010,10,25,00,10,9.60
2010,10,25,00,11,8.10
2010,10,25,00,12,14.50
2010,10,25,00,13,8.10
2010,10,25,00,14,8.10
2010,10,25,00,15,8.10
2010,10,25,00,16,11.30
2010,10,25,00,17,14.50
2010,10,25,00,18,6.40
2010,10,25,00,19,8.10
2010,10,25,00,20,14.50
2010,10,25,00,21,9.60
2010,10,25,00,22,14.50
2010,10,25,00,23,11.30
2010,10,25,00,24,8.10
2010,10,25,00,25,8.10
2010,10,25,00,26,9.60
2010,10,25,00,27,8.10
2010,10,25,00,28,8.10
2010,10,25,00,29,8.10
2010,10,25,00,30,8.10
2010,10,25,00,31,8.10
2010,10,25,00,32,11.30
2010,10,25,00,33,12.90
2010,10,25,00,34,9.60
2010,10,25,00,35,9.60
2010,10,25,00,36,11.30
2010,10,25,00,37,11.30
2010,10,25,00,38,11.30
2010,10,25,00,39,11.30
2010,10,25,00,40,14.50
2010,10,25,00,41,14.50
2010,10,25,00,42,16.10
2010,10,25,00,43,12.90
2010,10,25,00,44,9.60
2010,10,25,00,45,9.60
2010,10,25,00,46,11.30
2010,10,25,00,47,4.80
2010,10,25,00,48,12.90
2010,10,25,00,49,16.10
2010,10,25,00,50,14.50
2010,10,25,00,51,11.30
2010,10,25,00,52,11.30
2010,10,25,00,53,9.60
2010,10,25,00,54,14.50
2010,10,25,00,55,11.30
2010,10,25,00,56,11.30
2010,10,25,00,57,8.10
2010,10,25,00,58,8.10
2010,10,25,00,59,4.80
2010,10,25,01,00,11.30
2010,10,25,01,01,11.30
2010,10,25,01,02,9.60
2010,10,25,01,03,14.50
2010,10,25,01,04,3.20
2010,10,25,01,05,1.60
2010,10,25,01,06,12.90
2010,10,25,01,07,12.90
2010,10,25,01,08,6.40
2010,10,25,01,09,1.60
2010,10,25,01,10,9.60
2010,10,25,01,11,16.10
2010,10,25,01,12,17.70
2010,10,25,01,13,14.50
2010,10,25,01,14,8.10
2010,10,25,01,15,8.10
2010,10,25,01,16,14.50
2010,10,25,01,17,8.10
2010,10,25,01,18,12.90
2010,10,25,01,19,12.90
2010,10,25,01,20,17.70
2010,10,25,01,21,20.90
2010,10,25,01,22,19.30
2010,10,25,01,23,17.70
2010,10,25,01,24,16.10
2010,10,25,01,25,11.30
2010,10,25,01,26,9.60
2010,10,25,01,27,8.10
2010,10,25,01,28,11.30
2010,10,25,01,29,14.50
2010,10,25,01,30,22.50
2010,10,25,01,31,19.30
2010,10,25,01,32,17.70
2010,10,25,01,33,19.30
2010,10,25,01,34,9.60
2010,10,25,01,35,17.70
2010,10,25,01,36,17.70
2010,10,25,01,37,24.20
2010,10,25,01,38,17.70
2010,10,25,01,39,17.70
2010,10,25,01,40,11.30
2010,10,25,01,41,14.50
2010,10,25,01,42,16.10
2010,10,25,01,43,19.30
2010,10,25,01,44,19.30
2010,10,25,01,45,16.10
2010,10,25,01,46,16.10
2010,10,25,01,47,17.70
2010,10,25,01,48,16.10
2010,10,25,01,49,19.30
2010,10,25,01,50,14.50
2010,10,25,01,51,16.10
2010,10,25,01,52,16.10
2010,10,25,01,53,17.70
2010,10,25,01,54,17.70
2010,10,25,01,55,11.30
2010,10,25,01,56,11.30
2010,10,25,01,57,11.30
2010,10,25,01,58,11.30
2010,10,25,01,59,11.30
2010,10,25,02,00,11.30
2010,10,25,02,01,11.30
2010,10,25,02,02,11.30
2010,10,25,02,03,17.70
2010,10,25,02,04,12.90
2010,10,25,02,05,11.30
2010,10,25,02,06,16.10
2010,10,25,02,07,16.10
2010,10,25,02,08,9.60
2010,10,25,02,09,14.50
2010,10,25,02,10,14.50
2010,10,25,02,11,9.60
2010,10,25,02,12,6.40
2010,10,25,02,13,9.60
2010,10,25,02,14,6.40
2010,10,25,02,15,9.60
2010,10,25,02,16,11.30
2010,10,25,02,17,6.40
2010,10,25,02,18,8.10
2010,10,25,02,19,11.30
2010,10,25,02,20,17.70
2010,10,25,02,21,16.10
2010,10,25,02,22,16.10
2010,10,25,02,23,6.40
2010,10,25,02,24,9.60
2010,10,25,02,25,9.60
2010,10,25,02,26,4.80
2010,10,25,02,27,4.80
2010,10,25,02,28,3.20
2010,10,25,02,29,3.20
2010,10,25,02,30,1.60
2010,10,25,02,31,3.20
2010,10,25,02,32,3.20
2010,10,25,02,33,4.80
2010,10,25,02,34,6.40
2010,10,25,02,35,4.80
2010,10,25,02,36,1.60
2010,10,25,02,37,3.20
2010,10,25,02,38,3.20
2010,10,25,02,40,1.60
2010,10,25,02,41,1.60
2010,10,25,02,59,1.60
2010,10,25,03,00,1.60
2010,10,25,03,01,1.60
2010,10,25,03,57,1.60
2010,10,25,03,59,1.60
2010,10,25,04,00,3.20
2010,10,25,04,01,3.20
2010,10,25,04,02,3.20
2010,10,25,04,03,3.20
2010,10,25,04,04,1.60
2010,10,25,04,09,1.60
2010,10,25,04,11,1.60
2010,10,25,04,20,1.60
2010,10,25,04,24,1.60
2010,10,25,04,25,3.20
2010,10,25,04,26,3.20
2010,10,25,04,27,1.60
2010,10,25,04,29,4.80
2010,10,25,04,30,4.80
2010,10,25,04,31,4.80
2010,10,25,04,32,4.80
2010,10,25,04,33,3.20
2010,10,25,04,34,6.40
2010,10,25,04,35,6.40
2010,10,25,04,36,6.40
2010,10,25,04,37,4.80
2010,10,25,04,38,6.40
2010,10,25,04,39,1.60
2010,10,25,04,40,3.20
2010,10,25,04,41,6.40
2010,10,25,04,42,4.80
2010,10,25,04,43,8.10
2010,10,25,04,44,4.80
2010,10,25,04,45,8.10
2010,10,25,04,46,4.80
2010,10,25,04,47,6.40
2010,10,25,04,48,6.40
2010,10,25,04,49,3.20
2010,10,25,04,50,11.30
2010,10,25,04,51,11.30
2010,10,25,04,52,11.30
2010,10,25,04,53,6.40
2010,10,25,04,54,6.40
2010,10,25,04,55,9.60
2010,10,25,04,56,9.60
2010,10,25,04,57,9.60
2010,10,25,04,58,9.60
2010,10,25,04,59,9.60
2010,10,25,05,00,11.30
2010,10,25,05,01,11.30
2010,10,25,05,02,9.60
2010,10,25,05,03,9.60
2010,10,25,05,04,11.30
2010,10,25,05,05,8.10
2010,10,25,05,06,11.30
2010,10,25,05,07,11.30
2010,10,25,05,08,8.10
2010,10,25,05,09,8.10
2010,10,25,05,10,8.10
2010,10,25,05,11,6.40
2010,10,25,05,12,6.40
2010,10,25,05,13,8.10
2010,10,25,05,14,8.10
2010,10,25,05,15,8.10
2010,10,25,05,16,6.40
2010,10,25,05,17,6.40
2010,10,25,05,18,8.10
2010,10,25,05,19,8.10
2010,10,25,05,20,6.40
2010,10,25,05,21,1.60
2010,10,25,05,22,1.60
2010,10,25,05,23,1.60
2010,10,25,05,24,1.60
2010,10,25,05,25,1.60
2010,10,25,05,26,1.60
2010,10,25,05,27,3.20
2010,10,25,05,28,1.60
2010,10,25,05,29,3.20
2010,10,25,05,30,1.60
2010,10,25,05,31,1.60
2010,10,25,05,32,3.20
2010,10,25,05,33,6.40
2010,10,25,05,34,6.40
2010,10,25,05,35,6.40
2010,10,25,05,36,4.80
2010,10,25,05,37,4.80
2010,10,25,05,38,4.80
2010,10,25,05,39,3.20
2010,10,25,05,40,4.80
2010,10,25,05,41,4.80
2010,10,25,05,42,4.80
2010,10,25,05,43,4.80
2010,10,25,05,44,4.80
2010,10,25,05,45,8.10
2010,10,25,05,46,8.10
2010,10,25,05,47,6.40
2010,10,25,05,48,8.10
2010,10,25,05,49,8.10
2010,10,25,05,50,9.60
2010,10,25,05,51,8.10
2010,10,25,05,52,6.40
2010,10,25,05,53,6.40
2010,10,25,05,54,8.10
2010,10,25,05,55,8.10
2010,10,25,05,56,8.10
2010,10,25,05,57,4.80
2010,10,25,05,58,8.10
2010,10,25,05,59,6.40
2010,10,25,06,00,6.40
2010,10,25,06,01,4.80
2010,10,25,06,02,9.60
2010,10,25,06,03,9.60
2010,10,25,06,04,6.40
2010,10,25,06,05,6.40
2010,10,25,06,06,8.10
2010,10,25,06,07,3.20
2010,10,25,06,08,6.40
2010,10,25,06,09,6.40
2010,10,25,06,10,4.80
2010,10,25,06,11,4.80
2010,10,25,06,12,8.10
2010,10,25,06,13,14.50
2010,10,25,06,14,6.40
2010,10,25,06,15,4.80
2010,10,25,06,16,9.60
2010,10,25,06,17,8.10
2010,10,25,06,18,9.60
2010,10,25,06,19,14.50
2010,10,25,06,20,9.60
2010,10,25,06,21,9.60
2010,10,25,06,22,14.50
2010,10,25,06,23,9.60
2010,10,25,06,24,16.10
2010,10,25,06,25,9.60
2010,10,25,06,26,4.80
2010,10,25,06,27,17.70
2010,10,25,06,28,6.40
2010,10,25,06,29,11.30
2010,10,25,06,30,16.10
2010,10,25,06,31,14.50
2010,10,25,06,32,8.10
2010,10,25,06,33,8.10
2010,10,25,06,34,8.10
2010,10,25,06,35,9.60
2010,10,25,06,36,8.10
2010,10,25,06,37,11.30
2010,10,25,06,38,9.60
2010,10,25,06,39,8.10
2010,10,25,06,40,6.40
2010,10,25,06,41,8.10
2010,10,25,06,42,8.10
2010,10,25,06,43,8.10
2010,10,25,06,44,6.40
2010,10,25,06,45,4.80
2010,10,25,06,46,6.40
2010,10,25,06,47,9.60
2010,10,25,06,48,8.10
2010,10,25,06,49,9.60
2010,10,25,06,50,8.10
2010,10,25,06,51,8.10
2010,10,25,06,52,8.10
2010,10,25,06,53,8.10
2010,10,25,06,54,6.40
2010,10,25,06,55,9.60
2010,10,25,06,56,11.30
2010,10,25,06,57,11.30
2010,10,25,06,58,9.60
2010,10,25,06,59,9.60
2010,10,25,07,00,11.30
2010,10,25,07,01,9.60
2010,10,25,07,02,11.30
2010,10,25,07,03,11.30
2010,10,25,07,04,14.50
2010,10,25,07,05,16.10
2010,10,25,07,06,17.70
2010,10,25,07,07,12.90
2010,10,25,07,08,11.30
2010,10,25,07,09,9.60
2010,10,25,07,10,9.60
2010,10,25,07,11,9.60
2010,10,25,07,12,14.50
2010,10,25,07,13,17.70
2010,10,25,07,14,8.10
2010,10,25,07,15,11.30
2010,10,25,07,16,11.30
2010,10,25,07,17,9.60
2010,10,25,07,18,12.90
2010,10,25,07,19,8.10
2010,10,25,07,20,16.10
2010,10,25,07,21,11.30
2010,10,25,07,22,8.10
2010,10,25,07,23,9.60
2010,10,25,07,24,16.10
2010,10,25,07,25,16.10
2010,10,25,07,26,4.80
2010,10,25,07,27,4.80
2010,10,25,07,28,6.40
2010,10,25,07,29,4.80
2010,10,25,07,30,4.80
2010,10,25,07,31,4.80
2010,10,25,07,32,6.40
2010,10,25,07,33,9.60
2010,10,25,07,34,6.40
2010,10,25,07,35,9.60
2010,10,25,07,36,9.60
2010,10,25,07,37,4.80
2010,10,25,07,38,4.80
2010,10,25,07,39,4.80
2010,10,25,07,40,6.40
2010,10,25,07,41,8.10
2010,10,25,07,42,6.40
2010,10,25,07,43,4.80
2010,10,25,07,44,6.40
2010,10,25,07,45,6.40
2010,10,25,07,46,1.60
2010,10,25,07,47,6.40
2010,10,25,07,48,8.10
2010,10,25,07,49,4.80
2010,10,25,07,50,9.60
2010,10,25,07,51,9.60
2010,10,25,07,52,6.40
2010,10,25,07,53,6.40
2010,10,25,07,54,8.10
2010,10,25,07,55,8.10
2010,10,25,07,56,8.10
2010,10,25,07,57,8.10
2010,10,25,07,58,8.10
2010,10,25,07,59,11.30
2010,10,25,08,00,14.50
2010,10,25,08,01,8.10
2010,10,25,08,02,9.60
2010,10,25,08,03,9.60
2010,10,25,08,04,11.30
2010,10,25,08,05,17.70
2010,10,25,08,06,9.60
2010,10,25,08,07,17.70
2010,10,25,08,08,16.10
2010,10,25,08,09,12.90
2010,10,25,08,10,11.30
2010,10,25,08,11,9.60
2010,10,25,08,12,8.10
2010,10,25,08,13,17.70
2010,10,25,08,14,17.70
2010,10,25,08,15,9.60
2010,10,25,08,16,16.10
2010,10,25,08,17,6.40
2010,10,25,08,18,16.10
2010,10,25,08,19,16.10
2010,10,25,08,20,17.70
2010,10,25,08,21,16.10
2010,10,25,08,22,17.70
2010,10,25,08,23,17.70
2010,10,25,08,24,17.70
2010,10,25,08,25,22.50
2010,10,25,08,26,20.90
2010,10,25,08,27,22.50
2010,10,25,08,28,19.30
2010,10,25,08,29,17.70
2010,10,25,08,30,12.90
2010,10,25,08,31,19.30
2010,10,25,08,32,25.70
2010,10,25,08,33,20.90
2010,10,25,08,34,16.10
2010,10,25,08,35,16.10
2010,10,25,08,36,20.90
2010,10,25,08,37,24.20
2010,10,25,08,38,20.90
2010,10,25,08,39,19.30
2010,10,25,08,40,19.30
2010,10,25,08,41,17.70
2010,10,25,08,42,22.50
2010,10,25,08,43,17.70
2010,10,25,08,44,20.90
2010,10,25,08,45,22.50
2010,10,25,08,46,22.50
2010,10,25,08,47,25.70
2010,10,25,08,48,16.10
2010,10,25,08,49,27.40
2010,10,25,08,50,24.20
2010,10,25,08,51,20.90
2010,10,25,08,52,25.70
2010,10,25,08,53,22.50
2010,10,25,08,54,22.50
2010,10,25,08,55,24.20
2010,10,25,08,56,25.70
2010,10,25,08,57,22.50
2010,10,25,08,58,14.50
2010,10,25,08,59,19.30
2010,10,25,09,00,19.30
2010,10,25,09,01,17.70
2010,10,25,09,02,24.20
2010,10,25,09,03,20.90
2010,10,25,09,04,22.50
2010,10,25,09,05,19.30
2010,10,25,09,06,22.50
2010,10,25,09,07,24.20
2010,10,25,09,08,20.90
2010,10,25,09,09,22.50
2010,10,25,09,10,20.90
2010,10,25,09,11,16.10
2010,10,25,09,12,17.70
2010,10,25,09,13,22.50
2010,10,25,09,14,29.00
2010,10,25,09,15,24.20
2010,10,25,09,16,22.50
2010,10,25,09,17,17.70
2010,10,25,09,18,20.90
2010,10,25,09,19,24.20
2010,10,25,09,20,19.30
2010,10,25,09,21,14.50
2010,10,25,09,22,20.90
2010,10,25,09,23,17.70
2010,10,25,09,24,16.10
2010,10,25,09,25,17.70
2010,10,25,09,26,16.10
2010,10,25,09,27,17.70
2010,10,25,09,28,16.10
2010,10,25,09,29,16.10
2010,10,25,09,30,16.10
2010,10,25,09,31,17.70
2010,10,25,09,32,19.30
2010,10,25,09,33,16.10
2010,10,25,09,34,22.50
2010,10,25,09,35,20.90
2010,10,25,09,36,19.30
2010,10,25,09,37,16.10
2010,10,25,09,38,19.30
2010,10,25,09,39,19.30
2010,10,25,09,40,19.30
2010,10,25,09,41,19.30
2010,10,25,09,42,16.10
2010,10,25,09,43,16.10
2010,10,25,09,44,25.70
2010,10,25,09,45,14.50
2010,10,25,09,46,16.10
2010,10,25,09,47,17.70
2010,10,25,09,48,12.90
2010,10,25,09,49,20.90
2010,10,25,09,50,19.30
2010,10,25,09,51,17.70
2010,10,25,09,52,19.30
2010,10,25,09,53,17.70
2010,10,25,09,54,20.90
2010,10,25,09,55,22.50
2010,10,25,09,56,22.50
2010,10,25,09,57,22.50
2010,10,25,09,58,17.70
2010,10,25,09,59,24.20
2010,10,25,10,00,19.30
2010,10,25,10,01,20.90
2010,10,25,10,02,19.30
2010,10,25,10,03,19.30
2010,10,25,10,04,20.90
2010,10,25,10,05,20.90
2010,10,25,10,06,20.90
2010,10,25,10,07,17.70
2010,10,25,10,08,19.30
2010,10,25,10,09,19.30
2010,10,25,10,10,17.70
2010,10,25,10,11,17.70
2010,10,25,10,12,20.90
2010,10,25,10,13,19.30
2010,10,25,10,14,22.50
2010,10,25,10,15,17.70
2010,10,25,10,16,20.90
2010,10,25,10,17,17.70
2010,10,25,10,18,17.70
2010,10,25,10,19,17.70
2010,10,25,10,20,22.50
2010,10,25,10,21,19.30
2010,10,25,10,22,14.50
2010,10,25,10,23,8.10
2010,10,25,10,24,12.90
2010,10,25,10,25,22.50
2010,10,25,10,26,14.50
2010,10,25,10,27,24.20
2010,10,25,10,28,16.10
2010,10,25,10,29,24.20
2010,10,25,10,30,22.50
2010,10,25,10,31,22.50
2010,10,25,10,32,16.10
2010,10,25,10,33,14.50
2010,10,25,10,34,14.50
2010,10,25,10,35,17.70
2010,10,25,10,36,9.60
2010,10,25,10,37,16.10
2010,10,25,10,38,17.70
2010,10,25,10,39,16.10
2010,10,25,10,40,17.70
2010,10,25,10,41,24.20
2010,10,25,10,42,19.30
2010,10,25,10,43,16.10
2010,10,25,10,44,20.90
2010,10,25,10,45,24.20
2010,10,25,10,46,16.10
2010,10,25,10,47,20.90
2010,10,25,10,48,24.20
2010,10,25,10,49,17.70
2010,10,25,10,50,30.60
2010,10,25,10,51,19.30
2010,10,25,10,52,17.70
2010,10,25,10,53,17.70
2010,10,25,10,54,17.70
2010,10,25,10,55,22.50
2010,10,25,10,56,24.20
2010,10,25,10,57,20.90
2010,10,25,10,58,19.30
2010,10,25,10,59,20.90
2010,10,25,11,00,19.30
2010,10,25,11,01,29.00
2010,10,25,11,02,20.90
2010,10,25,11,03,19.30
2010,10,25,11,04,19.30
2010,10,25,11,05,25.70
2010,10,25,11,06,22.50
2010,10,25,11,07,22.50
2010,10,25,11,08,20.90
2010,10,25,11,09,17.70
2010,10,25,11,10,16.10
2010,10,25,11,11,16.10
2010,10,25,11,12,19.30
2010,10,25,11,13,17.70
2010,10,25,11,14,16.10
2010,10,25,11,15,17.70
2010,10,25,11,16,20.90
2010,10,25,11,17,20.90
2010,10,25,11,18,17.70
2010,10,25,11,19,14.50
2010,10,25,11,20,11.30
2010,10,25,11,21,9.60
2010,10,25,11,22,11.30
2010,10,25,11,23,11.30
2010,10,25,11,24,14.50
2010,10,25,11,25,16.10
2010,10,25,11,26,14.50
2010,10,25,11,27,9.60
2010,10,25,11,28,20.90
2010,10,25,11,29,19.30
2010,10,25,11,30,12.90
2010,10,25,11,31,11.30
2010,10,25,11,32,14.50
2010,10,25,11,33,17.70
2010,10,25,11,34,16.10
2010,10,25,11,35,16.10
2010,10,25,11,36,16.10
2010,10,25,11,37,20.90
2010,10,25,11,38,20.90
2010,10,25,11,39,20.90
2010,10,25,11,40,17.70
2010,10,25,11,41,14.50
2010,10,25,11,42,19.30
2010,10,25,11,43,16.10
2010,10,25,11,44,14.50
2010,10,25,11,45,11.30
2010,10,25,11,46,16.10
2010,10,25,11,47,16.10
2010,10,25,11,48,16.10
2010,10,25,11,49,11.30
2010,10,25,11,50,9.60
2010,10,25,11,51,14.50
2010,10,25,11,52,8.10
2010,10,25,11,53,12.90
2010,10,25,11,54,16.10
2010,10,25,11,55,16.10
2010,10,25,11,56,12.90
2010,10,25,11,57,17.70
2010,10,25,11,58,22.50
2010,10,25,11,59,22.50
2010,10,25,12,00,17.70
2010,10,25,12,01,14.50
2010,10,25,12,02,11.30
2010,10,25,12,03,16.10
2010,10,25,12,04,14.50
2010,10,25,12,05,14.50
2010,10,25,12,06,11.30
2010,10,25,12,07,12.90
2010,10,25,12,08,12.90
2010,10,25,12,09,14.50
2010,10,25,12,10,17.70
2010,10,25,12,11,11.30
2010,10,25,12,12,19.30
2010,10,25,12,13,16.10
2010,10,25,12,14,17.70
2010,10,25,12,15,11.30
2010,10,25,12,16,14.50
2010,10,25,12,17,19.30
2010,10,25,12,18,19.30
2010,10,25,12,19,19.30
2010,10,25,12,20,19.30
2010,10,25,12,21,19.30
2010,10,25,12,22,20.90
2010,10,25,12,23,24.20
2010,10,25,12,24,25.70
2010,10,25,12,25,19.30
2010,10,25,12,26,12.90
2010,10,25,12,27,24.20
2010,10,25,12,28,25.70
2010,10,25,12,29,24.20
2010,10,25,12,30,19.30
2010,10,25,12,31,16.10
2010,10,25,12,32,16.10
2010,10,25,12,33,33.80
2010,10,25,12,34,25.70
2010,10,25,12,35,22.50
2010,10,25,12,36,16.10
2010,10,25,12,37,17.70
2010,10,25,12,38,19.30
2010,10,25,12,39,17.70
2010,10,25,12,40,27.40
2010,10,25,12,41,20.90
2010,10,25,12,42,25.70
2010,10,25,12,43,20.90
2010,10,25,12,44,17.70
2010,10,25,12,45,16.10
2010,10,25,12,46,25.70
2010,10,25,12,47,20.90
2010,10,25,12,48,24.20
2010,10,25,12,49,27.40
2010,10,25,12,50,17.70
2010,10,25,12,51,17.70
2010,10,25,12,52,16.10
2010,10,25,12,53,20.90
2010,10,25,12,54,19.30
2010,10,25,12,55,25.70
2010,10,25,12,56,22.50
2010,10,25,12,57,19.30
2010,10,25,12,58,16.10
2010,10,25,12,59,27.40
2010,10,25,13,00,25.70
2010,10,25,13,01,24.20
2010,10,25,13,02,17.70
2010,10,25,13,03,11.30
2010,10,25,13,04,20.90
2010,10,25,13,05,20.90
2010,10,25,13,06,17.70
2010,10,25,13,07,11.30
2010,10,25,13,08,14.50
2010,10,25,13,09,20.90
2010,10,25,13,10,24.20
2010,10,25,13,11,19.30
2010,10,25,13,12,17.70
2010,10,25,13,13,25.70
2010,10,25,13,14,29.00
2010,10,25,13,15,29.00
2010,10,25,13,16,24.20
2010,10,25,13,17,19.30
2010,10,25,13,18,19.30
2010,10,25,13,19,19.30
2010,10,25,13,20,29.00
2010,10,25,13,21,22.50
2010,10,25,13,22,22.50
2010,10,25,13,23,20.90
2010,10,25,13,24,16.10
2010,10,25,13,25,22.50
2010,10,25,13,26,19.30
2010,10,25,13,27,11.30
2010,10,25,13,28,16.10
2010,10,25,13,29,20.90
2010,10,25,13,30,17.70
2010,10,25,13,31,17.70
2010,10,25,13,32,22.50
2010,10,25,13,33,20.90
2010,10,25,13,34,19.30
2010,10,25,13,35,20.90
2010,10,25,13,36,17.70
2010,10,25,13,37,17.70
2010,10,25,13,38,19.30
2010,10,25,13,39,19.30
2010,10,25,13,40,14.50
2010,10,25,13,41,17.70
2010,10,25,13,42,25.70
2010,10,25,13,43,19.30
2010,10,25,13,44,17.70
2010,10,25,13,45,16.10
2010,10,25,13,46,22.50
2010,10,25,13,47,20.90
2010,10,25,13,48,22.50
2010,10,25,13,49,24.20
2010,10,25,13,50,19.30
2010,10,25,13,51,19.30
2010,10,25,13,52,20.90
2010,10,25,13,53,30.60
2010,10,25,13,54,17.70
2010,10,25,13,55,20.90
2010,10,25,13,56,19.30
2010,10,25,13,57,22.50
2010,10,25,13,58,14.50
2010,10,25,13,59,17.70
2010,10,25,14,00,16.10
2010,10,25,14,01,24.20
2010,10,25,14,02,20.90
2010,10,25,14,03,14.50
2010,10,25,14,04,16.10
2010,10,25,14,05,12.90
2010,10,25,14,06,16.10
2010,10,25,14,07,20.90
2010,10,25,14,08,19.30
2010,10,25,14,09,17.70
2010,10,25,14,10,17.70
2010,10,25,14,11,22.50
2010,10,25,14,12,20.90
2010,10,25,14,13,29.00
2010,10,25,14,14,16.10
2010,10,25,14,15,16.10
2010,10,25,14,16,20.90
2010,10,25,14,17,17.70
2010,10,25,14,18,20.90
2010,10,25,14,19,19.30
2010,10,25,14,20,19.30
2010,10,25,14,21,22.50
2010,10,25,14,22,11.30
2010,10,25,14,23,17.70
2010,10,25,14,24,22.50
2010,10,25,14,25,17.70
2010,10,25,14,26,17.70
2010,10,25,14,27,17.70
2010,10,25,14,28,19.30
2010,10,25,14,29,20.90
2010,10,25,14,30,14.50
2010,10,25,14,31,19.30
2010,10,25,14,32,19.30
2010,10,25,14,33,17.70
2010,10,25,14,34,16.10
2010,10,25,14,35,16.10
2010,10,25,14,36,14.50
2010,10,25,14,37,16.10
2010,10,25,14,38,14.50
2010,10,25,14,39,16.10
2010,10,25,14,40,17.70
2010,10,25,14,41,20.90
2010,10,25,14,42,19.30
2010,10,25,14,43,19.30
2010,10,25,14,44,16.10
2010,10,25,14,45,11.30
2010,10,25,14,46,19.30
2010,10,25,14,47,16.10
2010,10,25,14,48,25.70
2010,10,25,14,49,27.40
2010,10,25,14,50,24.20
2010,10,25,14,51,22.50
2010,10,25,14,52,22.50
2010,10,25,14,53,20.90
2010,10,25,14,54,29.00
2010,10,25,14,55,25.70
2010,10,25,14,56,20.90
2010,10,25,14,57,27.40
2010,10,25,14,58,20.90
2010,10,25,14,59,29.00
2010,10,25,15,00,20.90
2010,10,25,15,01,22.50
2010,10,25,15,02,17.70
2010,10,25,15,03,19.30
2010,10,25,15,04,29.00
2010,10,25,15,05,22.50
2010,10,25,15,06,20.90
2010,10,25,15,07,20.90
2010,10,25,15,08,29.00
2010,10,25,15,09,27.40
2010,10,25,15,10,25.70
2010,10,25,15,11,24.20
2010,10,25,15,12,24.20
2010,10,25,15,13,25.70
2010,10,25,15,14,17.70
2010,10,25,15,15,25.70
2010,10,25,15,16,24.20
2010,10,25,15,17,20.90
2010,10,25,15,18,30.60
2010,10,25,15,19,25.70
2010,10,25,15,20,17.70
2010,10,25,15,21,22.50
2010,10,25,15,22,24.20
2010,10,25,15,23,24.20
2010,10,25,15,24,19.30
2010,10,25,15,25,20.90
2010,10,25,15,26,24.20
2010,10,25,15,27,22.50
2010,10,25,15,28,24.20
2010,10,25,15,29,17.70
2010,10,25,15,30,19.30
2010,10,25,15,31,27.40
2010,10,25,15,32,24.20
2010,10,25,15,33,19.30
2010,10,25,15,34,25.70
2010,10,25,15,35,11.30
2010,10,25,15,36,24.20
2010,10,25,15,37,16.10
2010,10,25,15,38,17.70
2010,10,25,15,39,27.40
2010,10,25,15,40,22.50
2010,10,25,15,41,17.70
2010,10,25,15,42,24.20
2010,10,25,15,43,33.80
2010,10,25,15,44,19.30
2010,10,25,15,45,20.90
2010,10,25,15,46,22.50
2010,10,25,15,47,20.90
2010,10,25,15,48,25.70
2010,10,25,15,49,30.60
2010,10,25,15,50,19.30
2010,10,25,15,51,40.20
2010,10,25,15,52,22.50
2010,10,25,15,53,22.50
2010,10,25,15,54,25.70
2010,10,25,15,55,22.50
2010,10,25,15,56,17.70
2010,10,25,15,57,22.50
2010,10,25,15,58,22.50
2010,10,25,15,59,30.60
2010,10,25,16,00,27.40
2010,10,25,16,01,25.70
2010,10,25,16,02,29.00
2010,10,25,16,03,29.00
2010,10,25,16,04,25.70
2010,10,25,16,05,25.70
2010,10,25,16,06,24.20
2010,10,25,16,07,22.50
2010,10,25,16,08,25.70
2010,10,25,16,09,24.20
2010,10,25,16,10,24.20
2010,10,25,16,11,12.90
2010,10,25,16,12,22.50
2010,10,25,16,13,22.50
2010,10,25,16,14,29.00
2010,10,25,16,15,33.80
2010,10,25,16,16,24.20
2010,10,25,16,17,22.50
2010,10,25,16,18,37.00
2010,10,25,16,19,33.80
2010,10,25,16,20,20.90
2010,10,25,16,21,20.90
2010,10,25,16,22,27.40
2010,10,25,16,23,12.90
2010,10,25,16,24,24.20
2010,10,25,16,25,22.50
2010,10,25,16,26,27.40
2010,10,25,16,27,29.00
2010,10,25,16,28,19.30
2010,10,25,16,29,25.70
2010,10,25,16,30,37.00
2010,10,25,16,31,32.20
2010,10,25,16,32,32.20
2010,10,25,16,33,32.20
2010,10,25,16,34,24.20
2010,10,25,16,35,25.70
2010,10,25,16,36,20.90
2010,10,25,16,37,37.00
2010,10,25,16,38,22.50
2010,10,25,16,39,29.00
2010,10,25,16,40,24.20
2010,10,25,16,41,24.20
2010,10,25,16,42,32.20
2010,10,25,16,43,20.90
2010,10,25,16,44,22.50
2010,10,25,16,45,25.70
2010,10,25,16,46,20.90
2010,10,25,16,47,32.20
2010,10,25,16,48,22.50
2010,10,25,16,49,24.20
2010,10,25,16,50,22.50
2010,10,25,16,51,24.20
2010,10,25,16,52,20.90
2010,10,25,16,53,20.90
2010,10,25,16,54,22.50
2010,10,25,16,55,25.70
2010,10,25,16,56,27.40
2010,10,25,16,57,20.90
2010,10,25,16,58,19.30
2010,10,25,16,59,20.90
2010,10,25,17,00,17.70
2010,10,25,17,01,20.90
2010,10,25,17,02,12.90
2010,10,25,17,03,24.20
2010,10,25,17,04,29.00
2010,10,25,17,05,16.10
2010,10,25,17,06,24.20
2010,10,25,17,07,24.20
2010,10,25,17,08,19.30
2010,10,25,17,09,30.60
2010,10,25,17,10,30.60
2010,10,25,17,11,22.50
2010,10,25,17,12,20.90
2010,10,25,17,13,22.50
2010,10,25,17,14,30.60
2010,10,25,17,15,19.30
2010,10,25,17,16,22.50
2010,10,25,17,17,14.50
2010,10,25,17,18,16.10
2010,10,25,17,19,19.30
2010,10,25,17,20,19.30
2010,10,25,17,21,17.70
2010,10,25,17,22,22.50
2010,10,25,17,23,20.90
2010,10,25,17,24,22.50
2010,10,25,17,25,24.20
2010,10,25,17,26,22.50
2010,10,25,17,27,17.70
2010,10,25,17,28,24.20
2010,10,25,17,29,22.50
2010,10,25,17,30,22.50
2010,10,25,17,31,20.90
2010,10,25,17,32,22.50
2010,10,25,17,33,25.70
2010,10,25,17,34,25.70
2010,10,25,17,35,22.50
2010,10,25,17,36,19.30
2010,10,25,17,37,20.90
2010,10,25,17,38,20.90
2010,10,25,17,39,20.90
2010,10,25,17,40,27.40
2010,10,25,17,41,17.70
2010,10,25,17,42,17.70
2010,10,25,17,43,20.90
2010,10,25,17,44,20.90
2010,10,25,17,45,14.50
2010,10,25,17,46,17.70
2010,10,25,17,47,22.50
2010,10,25,17,48,22.50
2010,10,25,17,49,25.70
2010,10,25,17,50,22.50
2010,10,25,17,51,20.90
2010,10,25,17,52,17.70
2010,10,25,17,53,19.30
2010,10,25,17,54,24.20
2010,10,25,17,55,22.50
2010,10,25,17,56,20.90
2010,10,25,17,57,17.70
2010,10,25,17,58,24.20
2010,10,25,17,59,16.10
2010,10,25,18,00,29.00
2010,10,25,18,01,20.90
2010,10,25,18,02,30.60
2010,10,25,18,03,20.90
2010,10,25,18,04,19.30
2010,10,25,18,05,16.10
2010,10,25,18,06,22.50
2010,10,25,18,07,24.20
2010,10,25,18,08,27.40
2010,10,25,18,09,20.90
2010,10,25,18,10,30.60
2010,10,25,18,11,25.70
2010,10,25,18,12,25.70
2010,10,25,18,13,24.20
2010,10,25,18,14,17.70
2010,10,25,18,15,19.30
2010,10,25,18,16,24.20
2010,10,25,18,17,19.30
2010,10,25,18,18,19.30
2010,10,25,18,19,19.30
2010,10,25,18,20,16.10
2010,10,25,18,21,20.90
2010,10,25,18,22,16.10
2010,10,25,18,23,16.10
2010,10,25,18,24,16.10
2010,10,25,18,25,6.40
2010,10,25,18,26,6.40
2010,10,25,18,27,6.40
2010,10,25,18,28,6.40
2010,10,25,18,29,11.30
2010,10,25,18,30,20.90
2010,10,25,18,31,25.70
2010,10,25,18,32,25.70
2010,10,25,18,33,19.30
2010,10,25,18,34,16.10
2010,10,25,18,35,17.70
2010,10,25,18,36,9.60
2010,10,25,18,37,17.70
2010,10,25,18,38,11.30
2010,10,25,18,39,11.30
2010,10,25,18,40,11.30
2010,10,25,18,41,11.30
2010,10,25,18,42,11.30
2010,10,25,18,43,11.30
2010,10,25,18,44,11.30
2010,10,25,18,45,19.30
2010,10,25,18,46,20.90
2010,10,25,18,47,20.90
2010,10,25,18,48,19.30
2010,10,25,18,49,17.70
2010,10,25,18,50,14.50
2010,10,25,18,51,16.10
2010,10,25,18,52,17.70
2010,10,25,18,53,17.70
2010,10,25,18,54,20.90
2010,10,25,18,55,20.90
2010,10,25,18,56,17.70
2010,10,25,18,57,30.60
2010,10,25,18,58,20.90
2010,10,25,18,59,20.90
2010,10,25,19,00,16.10
2010,10,25,19,01,24.20
2010,10,25,19,02,24.20